Temp
49 49 50 51 52 54 51 52 52 53 54 55 54 54 54 54 55 53 52 51 50 50 53 50 49 49 50 50 51 51 50 51 50 48 48 49 47 49 53 52 52 54 53 52 52 49 48 46 50 57 59 59 60 57 56 56 56 55 54 54 55 56 56
52 51 52 52 52 52 51 52 52 52 53 54 54 54 53 53 54 53 51 50 50 50 52 50 50 50 50 50 50 50 50 51 51 51 49 48 49 48 49 50 51 51 51 52 53 52 49 48 49 52 54 57 54 54 56 56 55 55 55 54 55 55 56
50 50 50 50 50 50 50 50 51 51 51 52 53 53 53 53 52 52 51 50 49 50 51 50 50 50 51 50 50 50 51 50 51 50 50 50 50 50 50 49 48 50 50 51 51 51 52 52 48 51 53 53 51 50 54 53 54 54 54 54 54 54 54
49 49 48 49 49 50 49 49 50 50 51 51 52 52 52 52 51 51 50 50 50 51 51 50 50 50 50 50 50 50 50 50 49 50 50 51 51 50 51 50 49 50 49 48 49 50 50 50 50 51 53 51 50 49 51 53 54 53 53 52 52 53 54
49 49 48 48 49 48 49 48 49 50 50 51 51 50 50 50 50 49 50 50 50 50 50 51 51 51 51 50 50 50 50 50 51 51 50 50 51 52 53 52 51 51 51 51 52 52 51 51 51 51 51 49 48 48 50 50 51 51 52 52 53 54 54
50 49 48 48 49 48 48 48 48 48 50 50 49 49 49 49 49 48 49 49 49 50 51 51 51 51 50 50 50 50 50 50 50 50 49 50 52 52 52 53 53 53 52 53 53 52 53 53 52 50 49 50 46 46 48 49 48 50 51 51 54 54 55
50 49 48 49 48 48 49 48 48 48 49 49 49 48 49 49 49 49 50 50 51 51 52 51 51 50 50 49 50 50 50 51 51 51 52 53 53 53 54 53 52 52 53 53 53 53 53 53 52 52 47 47 48 46 48 49 50 49 49 52 54 54 54
50 49 49 50 48 48 49 48 49 49 49 49 49 49 49 48 48 50 50 50 51 51 51 50 50 50 49 49 50 50 51 52 52 52 53 53 53 53 53 53 53 52 52 52 52 54 55 54 53 53 48 45 45 47 46 48 47 48 47 49 52 54 54
51 49 49 50 49 49 49 49 49 49 49 50 50 50 48 48 48 49 50 51 51 50 50 50 49 49 49 49 49 51 51 53 52 52 52 52 52 53 53 53 53 52 53 52 53 54 55 55 55 55 50 49 45 42 45 45 46 46 50 48 50 54 54
48 47 47 48 48 49 49 49 49 49 50 50 49 50 48 48 48 50 49 50 50 49 49 49 49 48 48 49 50 50 51 52 52 52 52 51 52 51 52 52 51 52 52 53 53 53 55 56 56 55 52 49 49 46 44 43 45 45 47 49 47 50 54
48 47 47 48 48 48 49 49 49 49 49 50 50 49 48 48 48 50 50 49 49 49 48 48 48 47 47 48 48 50 51 52 51 51 51 51 51 51 52 51 51 51 53 52 52 53 56 55 56 54 52 52 51 48 46 43 43 46 46 49 50 49 52
48 48 48 48 48 48 48 49 49 49 49 50 49 48 47 48 49 49 49 49 48 48 47 47 48 47 47 46 48 49 50 51 51 50 51 51 51 51 50 50 50 50 52 52 52 54 57 57 55 53 52 53 53 51 48 46 43 46 49 48 50 53 52
48 48 48 47 48 48 48 49 49 49 49 50 48 48 48 48 49 48 48 48 47 47 47 47 47 46 46 46 47 48 50 51 50 50 50 51 51 51 50 50 51 50 52 52 53 53 55 56 55 54 53 53 52 52 50 48 45 44 50 50 50 52 54
46 47 47 48 48 47 48 49 49 49 49 48 49 49 48 48 49 48 48 48 46 46 45 46 46 46 46 46 47 48 50 50 50 50 50 50 51 51 50 50 51 51 53 52 52 53 54 55 55 54 53 52 51 52 50 48 45 46 49 52 51 51 52
46 47 47 46 47 47 47 47 49 48 47 48 49 49 49 48 49 48 47 47 46 45 45 45 46 45 46 46 46 48 49 49 49 49 48 48 50 50 49 49 50 51 53 53 54 53 54 55 54 53 52 52 51 51 51 48 47 49 47 51 50 52 52
46 46 46 46 46 46 47 47 49 47 47 47 48 48 48 48 48 48 47 46 45 45 45 45 45 45 45 46 46 47 48 48 48 47 47 47 48 49 47 48 49 51 52 54 54 54 55 54 54 53 52 52 51 50 51 50 50 49 49 48 51 52 52
46 45 45 45 45 46 46 47 49 48 48 47 47 47 48 47 48 46 46 46 45 45 44 44 45 45 45 45 46 47 48 48 48 48 47 46 47 47 47 47 49 51 53 54 54 54 53 53 53 52 52 51 50 50 51 52 55 52 51 49 49 52 51
45 45 45 45 45 46 46 47 47 48 47 47 47 46 47 47 46 45 45 45 44 44 44 44 44 44 44 45 46 46 47 48 47 47 47 47 48 46 46 47 49 51 52 53 53 53 53 53 52 52 51 50 50 51 53 54 54 54 52 50 49 50 51
44 45 46 45 45 45 46 46 46 47 48 46 46 46 45 45 45 44 44 45 45 44 44 44 44 43 44 45 45 46 47 47 47 47 47 47 46 46 46 47 49 51 51 52 53 53 53 53 52 51 51 51 51 53 53 53 54 53 52 50 51 50 51
44 44 44 44 45 46 46 46 46 46 47 46 45 45 45 44 44 44 44 44 44 44 43 43 43 43 44 44 45 46 46 46 45 46 47 47 47 45 45 47 49 51 51 51 52 53 54 53 52 51 52 52 54 54 54 54 54 52 51 51 50 51 51
44 45 46 45 45 45 45 45 45 46 46 45 45 44 44 43 43 44 43 43 44 44 43 43 43 43 43 44 45 45 46 45 44 45 46 47 46 45 45 46 48 50 51 51 52 52 54 54 54 53 54 54 54 53 53 52 51 51 51 52 50 51 50
44 45 45 45 44 44 44 45 45 45 45 44 45 45 44 44 43 42 43 43 43 43 42 42 43 43 43 44 45 45 45 44 44 44 45 46 46 45 44 44 46 48 52 54 54 53 54 55 54 53 53 53 53 51 51 51 51 51 51 52 51 51 52
44 44 44 43 43 44 44 44 44 44 44 44 43 44 43 43 43 42 42 42 42 42 41 42 43 43 43 44 45 44 45 44 43 43 44 44 44 44 44 44 45 50 51 52 52 51 50 51 54 54 53 53 52 51 51 50 49 50 52 52 51 52 52
43 43 43 43 43 43 43 43 43 43 43 43 42 43 43 42 42 42 41 41 41 41 41 42 41 40 41 42 45 44 44 43 43 43 43 43 42 42 43 44 44 46 47 49 48 49 50 49 49 50 50 52 53 54 52 50 50 51 53 52 51 52 52
43 42 42 42 42 43 43 43 42 42 42 42 42 42 41 41 41 41 41 41 40 41 41 42 40 40 40 41 44 44 44 43 42 42 42 43 43 42 42 42 43 44 44 47 46 46 50 51 50 50 50 50 48 45 46 52 53 52 52 53 53 52 52
42 42 42 42 42 42 42 42 41 41 41 42 41 41 40 41 41 41 41 40 40 40 40 41 39 40 40 40 41 44 44 43 42 41 41 42 43 42 41 41 41 43 43 47 45 44 47 50 53 54 54 53 53 50 44 43 46 54 54 53 52 51 53
42 41 41 41 41 41 41 40 40 41 41 41 40 40 40 40 41 40 41 40 40 40 40 41 39 39 40 40 40 42 43 43 42 41 41 41 42 43 41 40 40 40 41 42 43 43 46 49 51 52 53 53 53 53 50 48 47 49 53 53 54 56 54
42 41 41 41 40 40 40 39 40 41 40 39 39 39 39 39 40 40 40 40 39 39 40 40 39 39 39 39 40 42 43 43 42 41 40 41 42 43 42 41 40 40 40 41 43 43 45 47 49 51 52 52 53 52 52 50 49 52 56 56 55 54 53
40 40 40 40 39 39 39 38 38 40 40 39 40 40 40 40 39 39 40 40 39 38 39 39 39 39 39 39 40 42 42 42 41 41 40 40 41 43 43 42 40 39 40 40 42 41 44 47 47 47 49 50 51 52 52 52 46 45 50 52 52 52 51
40 40 39 39 38 38 38 38 38 40 38 38 38 38 38 39 39 39 39 40 39 38 39 39 38 39 39 39 40 40 40 40 40 40 40 39 40 41 43 43 41 39 40 40 40 39 41 45 45 46 46 48 49 51 50 50 49 45 43 43 43 43 44
39 39 39 38 38 38 38 38 38 39 37 37 37 38 39 38 39 39 39 38 40 38 38 40 39 38 38 39 40 39 39 39 38 38 39 40 39 39 41 45 43 40 39 39 38 38 40 43 41 42 43 45 47 47 47 48 52 54 49 47 47 46 45
39 39 38 38 38 37 38 38 38 38 37 37 38 38 41 38 38 38 39 38 41 39 38 39 39 38 38 39 39 39 39 38 37 37 38 38 38 39 39 42 43 41 40 39 37 38 39 42 40 41 41 42 43 43 44 45 52 51 53 53 53 54 52
40 39 38 38 38 38 39 37 36 36 37 37 37 37 38 38 37 37 38 37 37 38 38 38 39 38 38 38 39 39 38 37 36 36 36 37 36 37 38 38 41 38 37 37 37 37 38 39 40 39 40 39 39 40 43 46 53 52 52 52 51 52 51
39 38 38 38 39 39 37 36 36 36 36 37 36 37 36 37 37 37 37 37 37 37 39 38 39 38 38 38 38 38 37 37 37 36 36 36 35 35 36 37 39 39 37 37 37 37 37 38 40 40 38 38 38 40 44 47 50 52 50 50 50 49 49
40 40 39 38 36 36 37 37 37 36 36 36 36 36 36 37 36 36 37 37 37 36 38 41 38 38 37 38 38 38 37 37 38 37 35 35 35 35 35 36 38 38 37 37 37 37 37 37 38 40 38 38 38 39 44 46 47 48 48 48 48 47 46
41 41 40 38 36 36 36 36 36 36 34 35 35 35 35 35 35 35 36 36 36 36 36 38 39 38 38 37 37 37 37 37 37 38 35 34 34 35 36 36 38 38 36 37 37 36 36 37 38 37 37 37 38 38 42 43 43 44 45 44 44 43 43
39 39 40 38 37 36 36 36 36 35 34 34 34 35 35 35 35 35 34 35 36 36 36 36 37 38 38 37 37 37 37 37 37 37 37 36 36 36 36 36 37 36 36 36 36 36 36 36 36 36 36 37 38 39 40 40 40 41 41 41 41 40 40
MSLP
1022.52 1022.40 1022.08 1021.80 1021.48 1021.24 1021.08 1020.80 1020.64 1020.40 1020.16 1019.96 1019.80 1019.56 1019.36 1019.12 1018.80 1018.60 1018.44 1018.24 1017.96 1017.72 1017.24 1017.36 1017.24 1016.88 1016.52 1016.12 1015.68 1015.40 1015.04 1014.64 1014.32 1014.04 1013.48 1012.96 1012.72 1012.12 1011.68 1011.56 1011.24 1010.96 1010.92 1010.92 1010.80 1010.64 1010.32 1009.76 1008.28 1007.88 1007.84 1007.80 1007.68 1008.04 1008.12 1008.32 1008.68 1009.04 1009.52 1009.80 1010.12 1010.40 1010.64
1022.56 1022.40 1022.16 1021.84 1021.64 1021.48 1021.28 1021.04 1020.88 1020.64 1020.36 1020.16 1020.00 1019.80 1019.64 1019.44 1019.20 1019.00 1018.76 1018.52 1018.24 1018.00 1017.64 1017.56 1017.20 1016.84 1016.48 1016.08 1015.76 1015.44 1015.04 1014.52 1014.20 1013.80 1013.52 1013.04 1012.52 1012.16 1011.84 1011.36 1011.12 1010.92 1010.68 1010.56 1010.40 1010.24 1010.24 1009.80 1008.92 1008.64 1008.20 1008.20 1008.64 1008.76 1008.96 1009.12 1009.48 1009.64 1009.88 1009.88 1010.32 1010.60 1010.84
1022.76 1022.52 1022.28 1022.08 1021.96 1021.80 1021.64 1021.40 1021.20 1020.92 1020.72 1020.48 1020.28 1020.08 1019.92 1019.68 1019.52 1019.28 1019.04 1018.84 1018.64 1018.36 1018.00 1017.72 1017.20 1016.64 1016.28 1016.08 1015.84 1015.48 1015.00 1014.64 1014.16 1013.80 1013.40 1012.84 1012.44 1011.92 1011.60 1011.40 1011.12 1010.68 1010.44 1010.20 1010.12 1009.92 1009.56 1009.40 1009.44 1008.84 1008.68 1008.52 1008.96 1009.76 1009.40 1009.96 1010.44 1010.68 1010.52 1010.48 1010.56 1010.88 1011.16
1022.92 1022.76 1022.64 1022.44 1022.28 1022.04 1021.96 1021.72 1021.48 1021.28 1021.00 1020.84 1020.60 1020.40 1020.20 1020.00 1019.80 1019.60 1019.40 1019.28 1018.96 1018.60 1018.16 1017.64 1017.20 1016.80 1016.48 1016.20 1015.80 1015.36 1014.92 1014.60 1014.16 1013.68 1013.16 1012.64 1012.12 1011.60 1011.20 1011.04 1010.84 1010.64 1010.48 1010.32 1010.08 1010.08 1010.08 1009.72 1009.28 1008.88 1008.80 1009.24 1009.76 1009.84 1010.16 1010.40 1011.04 1011.32 1011.24 1011.00 1010.92 1011.24 1011.48
1023.12 1023.08 1022.96 1022.80 1022.64 1022.48 1022.28 1022.04 1021.76 1021.48 1021.28 1021.08 1020.92 1020.72 1020.48 1020.32 1020.08 1020.00 1019.72 1019.48 1019.08 1018.60 1018.08 1017.68 1017.32 1016.96 1016.60 1016.20 1015.76 1015.36 1014.92 1014.40 1013.92 1013.52 1013.12 1012.56 1011.92 1011.32 1010.84 1010.60 1010.44 1010.24 1010.00 1009.88 1009.72 1009.76 1009.76 1009.48 1009.32 1009.04 1009.04 1010.16 1010.52 1010.52 1010.60 1010.68 1011.48 1012.00 1011.88 1011.40 1011.28 1011.52 1011.72
1023.24 1023.24 1023.16 1023.00 1022.88 1022.80 1022.56 1022.32 1022.08 1021.92 1021.60 1021.36 1021.28 1021.16 1021.00 1020.84 1020.56 1020.24 1019.84 1019.48 1019.04 1018.60 1018.16 1017.76 1017.44 1017.12 1016.76 1016.28 1015.80 1015.36 1014.84 1014.36 1013.92 1013.52 1013.08 1012.48 1011.80 1011.32 1010.88 1010.44 1010.20 1009.88 1009.72 1009.44 1009.32 1009.36 1009.24 1009.12 1009.12 1009.16 1009.84 1009.96 1010.80 1010.84 1011.20 1011.00 1012.00 1012.56 1012.20 1011.84 1011.84 1011.96 1012.00
1023.44 1023.40 1023.36 1023.28 1023.12 1022.96 1022.76 1022.60 1022.44 1022.24 1022.04 1021.92 1021.72 1021.64 1021.44 1021.12 1020.80 1020.44 1019.96 1019.52 1019.12 1018.68 1018.24 1017.92 1017.56 1017.28 1016.92 1016.40 1015.84 1015.32 1014.80 1014.28 1013.76 1013.32 1012.88 1012.24 1011.68 1011.16 1010.72 1010.36 1010.04 1009.88 1009.60 1009.32 1009.12 1008.96 1008.88 1008.96 1009.04 1009.00 1010.16 1010.60 1010.88 1011.08 1011.20 1011.32 1011.84 1012.12 1012.72 1012.68 1012.52 1012.52 1012.36
1023.64 1023.64 1023.56 1023.36 1023.32 1023.16 1022.92 1022.80 1022.60 1022.44 1022.28 1022.16 1022.04 1021.88 1021.56 1021.28 1020.92 1020.44 1020.00 1019.64 1019.20 1018.84 1018.48 1018.16 1017.76 1017.36 1016.88 1016.36 1015.80 1015.32 1014.72 1014.12 1013.64 1013.24 1012.72 1012.28 1011.68 1011.16 1010.64 1010.24 1009.96 1009.80 1009.60 1009.32 1009.12 1008.68 1008.48 1008.56 1008.56 1008.64 1009.56 1010.44 1011.20 1011.16 1011.36 1011.76 1012.04 1012.64 1013.48 1013.36 1013.04 1012.80 1012.72
1023.92 1023.88 1023.76 1023.60 1023.44 1023.32 1023.12 1022.96 1022.84 1022.68 1022.52 1022.40 1022.20 1021.92 1021.76 1021.48 1021.12 1020.60 1020.16 1019.72 1019.44 1019.04 1018.68 1018.28 1017.92 1017.56 1017.08 1016.52 1015.88 1015.28 1014.76 1014.20 1013.68 1013.16 1012.80 1012.28 1011.76 1011.20 1010.72 1010.20 1009.88 1009.72 1009.40 1009.12 1008.88 1008.48 1008.16 1008.16 1008.28 1008.36 1009.00 1008.92 1009.80 1011.48 1011.64 1012.00 1012.44 1013.24 1013.12 1013.32 1013.24 1013.04 1012.96
1024.28 1024.24 1024.16 1023.92 1023.72 1023.48 1023.24 1023.12 1023.00 1022.88 1022.72 1022.52 1022.36 1022.16 1021.96 1021.68 1021.28 1020.76 1020.36 1019.96 1019.64 1019.32 1018.92 1018.44 1018.12 1017.72 1017.24 1016.76 1016.16 1015.52 1014.92 1014.28 1013.80 1013.40 1012.92 1012.36 1011.84 1011.32 1010.72 1010.20 1009.92 1009.60 1009.12 1008.80 1008.60 1008.24 1007.72 1007.76 1007.96 1008.20 1008.52 1008.64 1008.80 1009.96 1011.04 1012.32 1012.88 1013.16 1013.40 1013.40 1013.48 1013.20 1013.00
1024.56 1024.44 1024.28 1024.12 1023.92 1023.68 1023.44 1023.28 1023.12 1023.00 1022.88 1022.80 1022.64 1022.44 1022.20 1021.84 1021.40 1020.88 1020.48 1020.16 1019.92 1019.60 1019.20 1018.68 1018.20 1017.80 1017.36 1016.92 1016.44 1015.80 1015.28 1014.56 1013.88 1013.24 1012.84 1012.40 1011.88 1011.40 1010.92 1010.36 1009.88 1009.48 1009.08 1008.76 1008.36 1007.96 1007.60 1007.64 1007.64 1008.04 1008.52 1008.88 1008.72 1008.96 1010.00 1011.80 1013.28 1013.20 1013.36 1013.52 1013.76 1013.60 1013.24
1024.76 1024.64 1024.44 1024.28 1024.08 1023.92 1023.76 1023.56 1023.40 1023.28 1023.12 1022.92 1022.76 1022.60 1022.36 1022.00 1021.48 1021.04 1020.68 1020.40 1020.20 1019.88 1019.44 1018.96 1018.48 1018.04 1017.72 1017.20 1016.60 1016.00 1015.40 1014.68 1014.08 1013.48 1012.96 1012.48 1011.88 1011.40 1010.96 1010.44 1009.96 1009.52 1008.96 1008.64 1008.32 1007.76 1007.24 1007.28 1007.64 1008.20 1008.72 1008.88 1009.12 1009.12 1009.88 1011.24 1012.68 1013.48 1013.32 1013.52 1013.48 1013.36 1013.36
1025.00 1024.88 1024.76 1024.52 1024.36 1024.24 1024.00 1023.84 1023.72 1023.52 1023.36 1023.16 1023.04 1022.80 1022.60 1022.20 1021.72 1021.44 1021.08 1020.72 1020.52 1020.16 1019.72 1019.20 1018.68 1018.24 1017.80 1017.44 1017.00 1016.40 1015.68 1014.96 1014.32 1013.72 1013.12 1012.68 1012.08 1011.48 1011.04 1010.56 1009.96 1009.52 1009.00 1008.64 1008.24 1007.88 1007.68 1007.64 1008.08 1008.48 1008.84 1009.16 1009.52 1010.04 1009.96 1010.64 1011.76 1013.16 1013.48 1013.44 1013.36 1013.44 1013.56
1025.24 1025.12 1024.88 1024.72 1024.60 1024.48 1024.32 1024.12 1024.00 1023.88 1023.64 1023.44 1023.20 1022.92 1022.72 1022.44 1022.04 1021.76 1021.40 1021.12 1020.92 1020.60 1020.08 1019.44 1018.88 1018.40 1017.96 1017.60 1017.12 1016.56 1015.88 1015.20 1014.56 1013.96 1013.40 1012.80 1012.20 1011.64 1011.16 1010.64 1010.04 1009.48 1009.00 1008.60 1008.20 1007.96 1007.88 1007.96 1008.40 1008.80 1009.20 1009.52 1010.04 1010.44 1010.16 1011.16 1012.08 1013.16 1013.40 1013.24 1013.28 1013.56 1013.88
1025.48 1025.32 1025.16 1025.04 1024.88 1024.76 1024.60 1024.44 1024.24 1024.08 1023.92 1023.76 1023.40 1023.20 1022.92 1022.64 1022.32 1022.00 1021.68 1021.40 1021.24 1020.84 1020.28 1019.76 1019.24 1018.76 1018.24 1017.80 1017.32 1016.72 1016.08 1015.48 1014.92 1014.36 1013.80 1013.20 1012.60 1012.08 1011.60 1010.88 1010.08 1009.48 1008.88 1008.56 1008.12 1007.96 1008.00 1008.32 1008.72 1009.24 1009.68 1009.92 1010.36 1010.72 1010.52 1011.24 1012.20 1012.44 1012.96 1013.12 1013.52 1013.80 1013.96
1025.72 1025.56 1025.44 1025.36 1025.24 1025.08 1024.88 1024.68 1024.44 1024.32 1024.20 1024.00 1023.72 1023.44 1023.16 1022.88 1022.60 1022.28 1021.92 1021.64 1021.40 1021.08 1020.64 1020.16 1019.64 1019.16 1018.64 1018.16 1017.68 1017.04 1016.44 1016.00 1015.52 1014.96 1014.36 1013.88 1013.20 1012.56 1011.88 1011.20 1010.44 1009.76 1009.08 1008.56 1008.32 1008.16 1008.24 1008.84 1009.24 1009.64 1010.16 1010.44 1010.88 1011.20 1011.20 1011.24 1011.72 1012.32 1012.80 1013.36 1013.60 1013.72 1014.00
1025.92 1025.84 1025.76 1025.72 1025.52 1025.36 1025.20 1025.00 1024.68 1024.56 1024.44 1024.28 1024.00 1023.76 1023.44 1023.16 1022.84 1022.56 1022.16 1021.80 1021.64 1021.36 1020.92 1020.44 1020.00 1019.52 1019.12 1018.64 1018.08 1017.44 1016.84 1016.40 1016.04 1015.56 1015.08 1014.48 1013.80 1013.16 1012.60 1011.80 1010.92 1010.16 1009.52 1009.20 1009.12 1009.12 1009.36 1009.68 1009.92 1010.28 1010.76 1011.12 1011.32 1011.56 1011.64 1011.60 1011.56 1011.72 1012.72 1013.16 1013.84 1013.84 1014.16
1026.24 1026.12 1026.04 1025.96 1025.80 1025.64 1025.48 1025.28 1025.04 1024.80 1024.64 1024.48 1024.28 1024.04 1023.76 1023.48 1023.16 1022.92 1022.60 1022.32 1022.04 1021.68 1021.28 1020.76 1020.32 1019.88 1019.44 1019.00 1018.44 1017.84 1017.28 1016.92 1016.52 1016.04 1015.56 1015.00 1014.40 1013.88 1013.24 1012.68 1011.88 1011.08 1010.48 1010.12 1010.12 1010.20 1010.36 1010.56 1010.76 1011.00 1011.36 1011.56 1011.68 1011.76 1011.76 1011.80 1012.04 1012.32 1012.68 1013.20 1013.88 1014.16 1014.28
1026.52 1026.40 1026.28 1026.20 1026.08 1025.92 1025.76 1025.60 1025.40 1025.16 1024.96 1024.80 1024.56 1024.36 1024.16 1023.92 1023.64 1023.36 1023.00 1022.68 1022.44 1022.00 1021.56 1021.12 1020.76 1020.36 1019.76 1019.16 1018.60 1018.08 1017.68 1017.36 1016.96 1016.44 1015.92 1015.32 1014.88 1014.44 1013.92 1013.20 1012.52 1011.92 1011.52 1011.20 1011.08 1011.04 1011.08 1011.28 1011.48 1011.68 1011.88 1012.00 1011.96 1012.00 1012.16 1012.36 1012.52 1012.84 1013.20 1013.68 1013.76 1014.08 1014.44
1026.76 1026.64 1026.56 1026.48 1026.32 1026.20 1026.04 1025.92 1025.72 1025.56 1025.32 1025.16 1024.96 1024.72 1024.48 1024.24 1023.96 1023.76 1023.40 1023.00 1022.64 1022.36 1021.92 1021.44 1020.92 1020.40 1019.88 1019.40 1019.08 1018.56 1018.00 1017.68 1017.36 1016.84 1016.32 1015.88 1015.40 1015.00 1014.56 1014.04 1013.40 1012.84 1012.56 1012.32 1012.04 1011.88 1011.84 1011.96 1012.12 1012.28 1012.36 1012.32 1012.24 1012.32 1012.52 1012.80 1013.04 1013.36 1013.60 1013.72 1013.96 1014.16 1014.36
1027.00 1026.92 1026.80 1026.72 1026.60 1026.52 1026.40 1026.24 1026.12 1025.92 1025.64 1025.44 1025.24 1025.12 1024.92 1024.68 1024.44 1024.16 1023.84 1023.44 1022.96 1022.48 1022.08 1021.56 1021.04 1020.68 1020.44 1020.00 1019.48 1019.04 1018.56 1018.16 1017.72 1017.28 1016.80 1016.36 1015.92 1015.60 1015.24 1014.72 1014.20 1013.64 1013.32 1013.12 1013.00 1012.76 1012.40 1012.32 1012.36 1012.52 1012.68 1012.60 1012.60 1012.68 1012.96 1013.24 1013.48 1013.60 1013.64 1013.72 1013.96 1014.00 1014.24
1027.24 1027.20 1027.12 1027.04 1026.96 1026.88 1026.76 1026.64 1026.48 1026.28 1026.08 1025.92 1025.68 1025.48 1025.32 1025.00 1024.72 1024.44 1024.12 1023.84 1023.40 1023.00 1022.56 1022.20 1021.84 1021.56 1021.00 1020.36 1019.84 1019.48 1019.04 1018.72 1018.24 1017.72 1017.32 1016.88 1016.48 1016.16 1015.76 1015.36 1014.88 1014.40 1013.80 1013.40 1013.12 1013.12 1013.04 1012.80 1012.72 1012.80 1012.92 1012.88 1012.96 1013.04 1013.32 1013.56 1013.60 1013.64 1013.76 1013.72 1013.88 1014.20 1014.04
1027.56 1027.52 1027.48 1027.44 1027.36 1027.20 1027.08 1026.96 1026.80 1026.64 1026.52 1026.36 1026.16 1025.84 1025.60 1025.32 1025.04 1024.80 1024.48 1024.16 1023.84 1023.48 1023.24 1022.88 1022.56 1022.08 1021.56 1021.00 1020.40 1020.00 1019.56 1019.20 1018.80 1018.32 1017.84 1017.44 1017.16 1016.96 1016.64 1016.28 1015.80 1015.04 1014.48 1014.12 1013.92 1013.76 1013.64 1013.48 1013.24 1013.20 1013.28 1013.28 1013.20 1013.36 1013.56 1013.64 1013.80 1013.88 1013.84 1013.88 1014.08 1014.08 1013.88
1027.88 1027.88 1027.88 1027.76 1027.64 1027.52 1027.40 1027.28 1027.16 1027.00 1026.88 1026.72 1026.52 1026.20 1025.88 1025.60 1025.36 1025.12 1024.88 1024.60 1024.28 1023.92 1023.68 1023.40 1023.00 1022.36 1021.76 1021.24 1020.68 1020.36 1020.08 1019.80 1019.44 1019.00 1018.56 1018.24 1018.16 1017.72 1017.20 1016.88 1016.40 1015.88 1015.32 1014.96 1014.80 1014.52 1014.20 1014.08 1013.96 1013.72 1013.64 1013.72 1013.76 1013.64 1013.48 1013.72 1014.12 1013.96 1014.00 1014.36 1014.68 1014.56 1014.36
1028.16 1028.20 1028.16 1028.12 1028.00 1027.88 1027.72 1027.56 1027.48 1027.40 1027.24 1027.04 1026.84 1026.56 1026.24 1026.04 1025.76 1025.48 1025.24 1025.00 1024.68 1024.36 1024.08 1023.76 1023.28 1022.64 1022.12 1021.60 1021.12 1020.80 1020.52 1020.28 1020.04 1019.72 1019.28 1018.80 1018.56 1018.48 1018.08 1017.48 1017.04 1016.80 1016.48 1016.12 1015.84 1015.36 1014.72 1014.44 1014.24 1014.04 1013.96 1014.04 1014.16 1014.24 1014.32 1014.00 1013.88 1014.00 1014.08 1014.00 1014.20 1014.40 1014.52
1028.48 1028.48 1028.48 1028.44 1028.32 1028.16 1028.00 1027.88 1027.80 1027.68 1027.56 1027.40 1027.20 1026.88 1026.76 1026.40 1026.08 1025.76 1025.52 1025.32 1025.04 1024.76 1024.48 1024.16 1023.64 1023.08 1022.60 1022.04 1021.60 1021.12 1020.88 1020.76 1020.56 1020.40 1020.00 1019.48 1019.04 1018.92 1018.84 1018.52 1018.08 1017.60 1017.28 1016.64 1016.36 1016.08 1015.56 1015.00 1014.64 1014.36 1014.28 1014.28 1014.36 1014.52 1014.52 1014.56 1014.56 1014.20 1014.16 1014.16 1014.36 1014.88 1015.04
1028.76 1028.80 1028.76 1028.68 1028.56 1028.44 1028.36 1028.36 1028.28 1028.08 1027.96 1027.76 1027.52 1027.28 1027.04 1026.76 1026.44 1026.16 1025.92 1025.76 1025.52 1025.16 1024.76 1024.56 1024.08 1023.56 1023.04 1022.52 1022.04 1021.60 1021.36 1021.20 1021.12 1020.96 1020.72 1020.24 1019.76 1019.44 1019.48 1019.36 1019.00 1018.60 1018.20 1017.76 1017.40 1016.92 1016.36 1015.80 1015.28 1014.84 1014.76 1014.80 1014.92 1014.96 1014.96 1014.96 1014.88 1014.84 1014.68 1014.52 1014.64 1014.68 1015.00
1029.00 1029.04 1029.00 1028.96 1028.84 1028.76 1028.76 1028.68 1028.52 1028.36 1028.28 1028.16 1027.92 1027.68 1027.48 1027.24 1026.96 1026.68 1026.32 1026.12 1025.84 1025.60 1025.36 1025.00 1024.44 1023.96 1023.44 1022.96 1022.48 1022.00 1021.80 1021.60 1021.48 1021.44 1021.28 1020.96 1020.56 1020.12 1020.04 1019.96 1019.72 1019.44 1018.96 1018.60 1018.40 1017.88 1017.04 1016.48 1015.88 1015.44 1015.36 1015.44 1015.52 1015.60 1015.60 1015.64 1015.64 1015.36 1015.12 1015.04 1015.04 1015.20 1015.44
1029.24 1029.32 1029.28 1029.20 1029.12 1029.12 1029.08 1029.04 1028.92 1028.76 1028.64 1028.48 1028.28 1028.04 1027.76 1027.52 1027.36 1027.08 1026.72 1026.36 1026.16 1026.04 1025.68 1025.24 1024.80 1024.36 1023.92 1023.44 1022.96 1022.52 1022.28 1022.08 1021.92 1021.84 1021.76 1021.64 1021.24 1020.84 1020.48 1020.36 1020.16 1019.84 1019.60 1019.28 1018.92 1018.40 1017.72 1017.12 1016.68 1016.52 1016.16 1016.00 1015.96 1015.88 1015.96 1016.28 1016.40 1016.24 1015.88 1015.68 1015.68 1015.80 1016.00
1029.52 1029.60 1029.60 1029.52 1029.48 1029.48 1029.44 1029.32 1029.24 1029.08 1029.00 1028.84 1028.64 1028.36 1028.16 1027.96 1027.76 1027.44 1027.12 1026.72 1026.56 1026.52 1026.12 1025.72 1025.32 1024.84 1024.44 1023.92 1023.40 1023.20 1022.88 1022.64 1022.52 1022.32 1022.32 1022.28 1022.04 1021.64 1021.16 1020.96 1020.84 1020.60 1020.24 1020.08 1019.96 1019.20 1018.40 1017.68 1017.32 1017.16 1016.88 1016.72 1016.64 1016.36 1016.64 1016.64 1016.40 1016.44 1016.52 1016.32 1016.32 1016.36 1016.36
1029.80 1029.88 1029.84 1029.84 1029.84 1029.84 1029.76 1029.64 1029.52 1029.44 1029.36 1029.16 1028.88 1028.68 1028.40 1028.24 1027.96 1027.80 1027.60 1027.36 1027.04 1027.04 1026.76 1026.28 1025.84 1025.40 1025.00 1024.56 1024.12 1023.88 1023.56 1023.28 1023.12 1023.04 1022.84 1022.72 1022.60 1022.40 1022.04 1021.48 1021.32 1021.20 1021.08 1020.96 1020.48 1019.68 1019.04 1018.36 1018.24 1018.20 1017.80 1017.36 1017.00 1017.08 1017.32 1017.32 1016.80 1016.52 1016.40 1016.20 1016.24 1016.36 1016.44
1030.04 1030.12 1030.08 1030.12 1030.08 1030.00 1029.96 1029.96 1029.88 1029.72 1029.52 1029.36 1029.20 1029.04 1028.64 1028.56 1028.36 1028.20 1028.08 1027.96 1027.48 1027.20 1027.04 1026.60 1026.24 1025.88 1025.48 1025.04 1024.56 1024.32 1024.04 1023.76 1023.64 1023.76 1023.48 1023.28 1023.12 1022.88 1022.60 1022.16 1022.00 1022.04 1021.92 1021.68 1021.00 1020.36 1019.80 1019.24 1019.16 1019.12 1018.92 1018.36 1017.92 1018.12 1018.52 1018.24 1017.40 1017.04 1016.72 1016.60 1016.72 1016.56 1016.68
1030.24 1030.28 1030.28 1030.28 1030.24 1030.24 1030.20 1030.12 1030.04 1029.92 1029.76 1029.72 1029.56 1029.40 1029.12 1028.88 1028.76 1028.64 1028.48 1028.24 1028.00 1027.60 1027.32 1027.12 1026.72 1026.40 1026.00 1025.56 1025.12 1024.76 1024.40 1024.24 1024.60 1024.60 1024.28 1024.04 1023.76 1023.40 1023.16 1022.80 1022.44 1022.44 1022.32 1021.96 1021.60 1021.16 1020.72 1020.20 1019.96 1019.88 1019.48 1019.48 1019.56 1019.04 1018.96 1018.36 1017.72 1017.60 1017.48 1017.48 1017.52 1017.44 1017.52
1030.36 1030.44 1030.48 1030.48 1030.48 1030.48 1030.48 1030.40 1030.32 1030.20 1030.16 1030.04 1029.88 1029.68 1029.48 1029.28 1029.08 1028.96 1028.84 1028.60 1028.40 1028.12 1027.76 1027.56 1027.20 1026.88 1026.52 1026.16 1025.72 1025.32 1025.12 1025.16 1025.28 1025.24 1025.04 1024.72 1024.60 1024.44 1024.08 1023.76 1023.40 1023.16 1022.96 1022.56 1022.12 1021.76 1021.40 1021.12 1020.64 1020.36 1020.44 1020.68 1020.80 1020.32 1019.36 1018.76 1018.40 1018.08 1017.96 1018.00 1018.00 1018.04 1018.16
1030.48 1030.60 1030.68 1030.68 1030.64 1030.64 1030.76 1030.72 1030.64 1030.60 1030.48 1030.32 1030.12 1030.00 1029.84 1029.64 1029.48 1029.32 1029.16 1028.96 1028.80 1028.72 1028.36 1027.92 1027.68 1027.36 1027.12 1026.80 1026.44 1026.04 1025.84 1025.92 1025.80 1025.60 1025.36 1025.32 1025.20 1025.12 1025.04 1024.72 1024.28 1024.00 1023.56 1023.16 1022.68 1022.32 1022.04 1021.72 1021.32 1020.96 1021.44 1021.36 1020.84 1020.20 1019.64 1019.36 1019.00 1018.76 1018.64 1018.56 1018.60 1018.72 1018.96
1030.68 1030.76 1030.84 1030.92 1030.88 1030.92 1031.00 1030.92 1030.92 1030.92 1030.80 1030.64 1030.52 1030.36 1030.16 1030.04 1029.76 1029.60 1029.40 1029.28 1029.20 1029.08 1028.92 1028.52 1028.12 1027.84 1027.64 1027.32 1027.00 1026.68 1026.56 1026.40 1026.16 1025.80 1025.84 1025.92 1026.04 1026.00 1025.72 1025.36 1024.96 1024.52 1024.12 1023.68 1023.16 1022.92 1022.60 1022.20 1021.84 1022.28 1022.08 1021.56 1021.24 1020.72 1020.08 1019.92 1019.76 1019.52 1019.48 1019.52 1019.44 1019.72 1019.96
1030.84 1030.96 1031.04 1031.08 1031.12 1031.16 1031.16 1031.20 1031.24 1031.24 1031.20 1031.12 1031.00 1030.88 1030.80 1030.60 1030.28 1030.04 1029.92 1029.64 1029.44 1029.36 1029.28 1029.16 1028.72 1028.36 1028.08 1027.84 1027.52 1027.28 1027.04 1026.80 1026.52 1026.40 1026.28 1026.36 1026.40 1026.28 1026.04 1025.76 1025.48 1025.12 1024.60 1024.08 1023.64 1023.36 1023.24 1023.08 1023.16 1022.92 1022.44 1022.04 1021.64 1021.24 1020.84 1020.76 1020.60 1020.60 1020.44 1020.36 1020.52 1020.80 1020.88
Wind_Speed
6 6 7 7 6 6 8 9 8 7 8 8 8 10 10 11 11 11 11 11 10 11 11 11 11 11 11 12 13 13 9 8 11 9 10 10 9 9 8 9 9 9 8 8 9 9 9 11 11 3 2 4 3 5 8 10 10 11 10 9 9 7 6
6 6 6 6 7 8 9 9 8 8 8 9 9 10 10 10 11 11 11 12 11 12 10 11 11 12 12 11 11 11 10 11 9 10 9 9 9 9 8 8 8 8 8 7 8 8 7 7 8 7 6 4 6 7 6 7 7 8 8 10 9 8 6
6 7 7 8 8 8 9 9 8 7 7 8 9 10 10 11 11 12 11 13 13 13 12 11 11 11 11 12 12 11 11 11 10 9 9 9 9 10 9 8 9 7 8 7 5 6 6 6 7 6 7 7 3 5 8 9 7 5 7 7 9 8 6
8 7 8 9 8 9 9 9 8 7 7 8 8 9 11 12 11 12 12 14 13 13 12 10 9 10 11 10 12 12 11 12 10 10 10 11 9 9 10 7 7 8 7 7 8 7 5 6 7 6 6 6 5 7 8 10 7 4 5 7 9 9 5
8 7 8 9 9 9 9 8 8 7 8 7 9 9 11 12 11 11 12 13 12 10 10 9 9 11 11 11 11 10 11 11 9 12 10 11 12 9 9 7 6 6 7 8 7 5 6 6 7 8 3 5 6 6 7 12 11 7 3 8 8 6 5
8 8 8 9 8 8 7 8 8 8 7 9 10 11 11 13 10 10 11 11 9 9 9 9 11 11 11 11 11 12 10 10 9 9 11 11 12 9 9 7 6 6 6 7 7 7 6 7 6 3 5 5 5 5 6 7 7 5 6 7 6 5 4
8 8 7 7 8 7 7 7 7 7 8 9 9 10 10 10 9 9 10 8 8 9 11 12 12 12 12 11 10 9 10 8 8 12 11 12 10 12 9 8 8 7 7 7 7 6 7 7 4 4 7 6 3 6 5 6 5 5 7 5 4 4 4
8 7 7 7 7 7 7 7 6 6 7 8 9 8 10 11 12 12 11 9 10 11 12 11 11 13 13 9 8 9 7 9 10 10 10 13 12 13 13 10 9 7 7 7 6 7 6 6 7 4 11 11 5 5 7 4 8 9 3 2 3 3 3
7 7 7 7 7 7 6 6 7 7 7 7 7 9 10 10 12 12 10 10 11 11 12 12 12 11 11 11 9 9 10 8 11 13 11 12 13 14 12 11 8 8 6 7 6 6 5 6 6 3 8 11 13 8 8 9 6 3 3 2 3 3 2
9 8 7 8 8 7 7 7 7 6 7 7 8 8 10 10 11 11 9 10 11 12 13 13 12 11 11 9 9 11 11 13 11 12 11 12 12 12 11 13 9 8 9 9 7 5 4 6 6 6 10 11 12 14 10 6 4 3 3 3 1 2 1
8 8 8 8 7 8 8 8 7 7 8 8 8 8 9 11 11 12 10 11 11 12 13 12 13 12 12 10 11 9 10 11 12 11 11 11 12 11 12 10 11 9 9 9 9 8 4 4 4 6 8 4 4 13 12 11 5 2 4 1 1 1 1
8 8 8 8 7 8 9 8 8 7 6 7 9 9 10 10 11 11 10 11 11 12 13 12 13 13 12 10 11 10 11 12 11 12 12 12 11 12 12 12 11 10 9 9 8 6 3 3 6 8 7 6 3 10 15 13 9 2 1 3 2 1 3
8 7 7 7 8 9 8 9 9 9 8 7 7 9 9 10 11 12 12 11 13 13 13 13 12 11 10 9 9 10 11 12 13 13 13 12 11 12 13 13 13 11 10 8 9 8 5 6 8 8 8 7 8 5 12 12 13 9 3 1 2 3 4
9 8 8 9 8 8 8 7 8 7 8 9 8 9 11 10 12 11 11 12 12 13 13 13 12 11 10 11 10 10 11 12 13 12 13 14 14 14 14 13 12 12 10 9 8 6 4 8 9 8 8 9 9 3 12 11 12 7 2 2 3 3 3
8 8 9 9 9 8 8 7 7 7 8 9 9 9 10 9 11 12 11 11 12 12 13 13 13 12 11 11 11 9 11 13 14 15 13 14 15 14 14 14 13 12 10 8 7 6 3 10 9 10 8 9 9 6 11 11 9 7 6 3 4 4 3
8 9 9 8 9 8 8 8 7 8 9 9 9 10 10 10 12 12 11 11 12 14 14 13 12 12 12 13 12 11 12 13 14 14 15 16 15 15 16 15 15 14 9 10 11 9 11 11 10 11 10 8 9 6 8 11 9 6 7 4 3 4 2
9 8 8 7 9 8 8 8 7 8 8 8 9 9 10 11 11 12 12 13 14 14 14 13 13 11 11 13 13 13 13 14 13 13 13 15 16 16 16 16 17 16 14 13 13 13 12 11 10 10 10 8 8 8 7 7 5 7 4 6 3 3 1
8 8 8 7 8 8 8 8 8 9 9 9 9 9 10 11 11 12 12 13 13 13 13 14 14 14 12 11 11 12 13 13 13 12 13 14 15 14 15 14 15 15 14 13 13 12 11 11 9 9 8 7 8 6 5 5 6 5 6 7 4 3 3
8 8 8 7 8 8 8 9 9 9 9 10 9 9 10 10 11 12 13 12 12 13 13 12 13 13 11 12 12 12 12 13 12 12 12 13 16 15 15 16 16 16 16 14 13 11 11 11 10 9 9 7 7 7 7 7 6 7 7 6 4 4 4
7 7 7 7 7 8 8 9 9 9 9 10 9 10 11 11 11 12 13 12 12 12 12 13 14 13 13 14 12 13 13 13 12 10 11 13 14 15 15 15 15 15 16 14 12 11 9 10 9 9 7 7 7 7 7 6 6 7 6 5 5 4 3
7 7 7 7 8 8 8 8 9 8 9 10 10 11 11 11 10 10 11 11 12 12 13 14 16 16 13 12 11 12 12 14 13 12 12 12 14 14 15 15 15 15 14 14 13 10 10 7 8 8 5 6 7 8 7 6 6 6 6 5 4 3 2
6 7 7 8 8 8 8 8 8 8 9 9 9 10 10 10 11 11 11 11 12 12 12 14 13 15 14 13 12 12 12 14 14 13 12 12 14 15 15 15 15 15 18 23 25 20 18 12 7 7 5 6 7 8 7 6 6 6 4 5 4 3 3
7 7 8 8 8 8 8 8 8 9 9 8 8 9 9 9 9 10 11 11 11 10 12 11 20 24 20 14 11 9 10 13 14 14 13 14 14 14 13 14 15 25 25 24 23 19 18 16 15 9 6 5 7 7 6 7 6 5 5 4 3 2 3
7 8 7 7 7 8 7 7 7 8 8 9 9 9 9 10 10 10 11 11 11 11 11 15 25 21 21 22 14 10 11 12 13 14 14 13 13 14 13 12 11 17 19 21 17 20 17 17 14 15 15 14 10 5 7 7 5 4 3 3 1 2 1
7 7 7 8 8 7 7 8 8 8 8 9 9 8 9 10 9 9 9 10 10 12 12 23 22 22 21 21 19 11 10 10 12 14 14 13 13 13 14 13 12 10 11 17 13 13 13 16 16 16 17 16 15 14 10 4 4 3 3 3 3 2 1
7 7 7 7 6 6 8 8 8 8 9 8 8 9 9 9 11 10 10 11 12 12 11 24 21 22 21 21 20 14 9 11 12 13 14 14 15 16 14 12 12 12 11 23 17 13 10 11 12 16 17 16 15 17 15 15 10 1 4 4 4 3 2
7 6 6 7 7 7 8 8 7 7 6 7 8 8 8 10 10 10 10 11 10 11 14 22 21 22 21 20 18 12 9 10 11 12 13 13 13 15 16 15 12 12 12 13 14 13 10 10 9 11 12 11 12 14 15 14 13 10 5 5 5 4 1
6 6 6 7 7 7 7 7 7 6 7 7 8 8 9 9 10 10 11 9 10 10 12 25 21 23 21 20 18 11 9 9 9 11 11 12 13 15 16 15 14 11 12 12 16 18 11 10 9 10 10 11 9 8 9 11 8 6 4 4 5 5 4
6 6 6 7 7 7 7 7 8 7 7 7 6 6 7 7 9 11 11 10 11 11 13 25 23 23 22 19 17 10 9 10 10 10 12 13 13 13 15 16 15 14 14 15 23 23 18 9 10 11 10 11 9 8 9 8 10 10 8 7 6 6 6
6 6 6 7 8 8 8 8 7 6 7 7 7 7 8 7 7 9 11 11 11 11 12 22 23 23 22 20 13 9 10 9 10 11 11 11 11 12 16 17 15 15 15 17 22 21 21 14 9 10 11 10 9 8 10 9 10 8 9 12 14 13 12
6 6 7 8 7 6 6 6 7 6 6 7 8 8 7 7 8 9 12 12 12 10 10 18 24 22 22 20 15 9 8 8 10 11 10 11 10 10 15 27 24 18 17 17 21 22 21 15 12 11 10 8 10 10 10 9 6 7 7 13 15 14 17
6 6 7 6 6 6 6 5 5 5 6 6 7 6 7 6 7 8 9 10 16 13 10 14 23 22 23 22 15 9 8 8 12 12 10 11 10 10 11 16 26 23 20 20 22 22 23 17 11 10 8 7 9 10 8 9 8 8 9 10 11 11 13
5 6 6 6 6 6 4 5 7 7 7 7 6 7 6 6 8 8 8 10 10 11 11 11 18 23 23 23 21 11 9 12 12 11 11 12 11 11 12 12 18 24 21 23 22 22 21 20 12 10 10 10 9 11 9 9 8 6 7 8 7 8 8
7 6 5 5 4 5 6 6 7 7 7 7 7 7 8 7 7 7 8 9 9 12 12 12 15 23 23 22 23 17 10 12 9 9 9 11 10 12 12 12 12 22 22 21 21 21 21 21 17 13 13 11 9 9 8 5 9 12 8 8 9 9 8
6 5 5 5 6 7 6 6 6 7 6 7 8 9 8 7 7 7 7 8 10 9 12 19 13 18 22 22 22 23 13 11 10 8 9 9 10 11 11 11 12 18 20 19 20 22 22 20 21 15 14 16 16 16 9 7 6 7 8 8 7 9 9
5 4 4 5 6 7 6 7 7 7 7 7 8 9 10 8 8 9 9 7 7 8 9 11 20 15 20 21 21 21 20 14 14 11 10 11 11 9 9 9 11 21 19 19 18 21 23 23 19 16 19 18 18 16 11 9 8 8 8 7 8 8 8
5 5 5 5 6 6 6 6 6 6 6 6 6 7 7 8 8 9 9 8 8 8 7 7 13 19 16 20 20 20 19 19 19 11 10 9 8 9 10 11 12 17 18 18 17 18 21 22 17 21 20 19 17 15 10 9 9 8 7 9 10 9 8
Wind_Direction
7 348 342 337 346 355 358 2 358 1 2 8 7 10 8 4 2 360 359 354 352 348 353 355 348 343 341 340 343 339 326 328 327 316 312 313 315 312 308 301 291 285 276 277 272 278 288 300 309 308 268 327 307 133 143 137 132 129 123 113 112 105 94
3 356 341 354 0 359 4 358 2 356 2 3 8 7 6 4 2 357 358 356 353 352 356 348 342 337 328 324 333 335 328 325 321 318 308 305 307 301 306 298 290 286 282 264 272 270 271 286 294 311 325 48 46 29 105 84 92 107 116 118 113 104 95
3 358 3 4 3 359 1 356 356 357 356 6 3 6 3 4 359 359 0 358 357 352 352 339 328 322 332 338 333 325 321 321 318 311 306 300 297 294 290 282 289 291 287 283 265 278 283 260 277 306 322 309 27 2 79 78 61 72 101 100 99 92 86
6 9 8 4 1 1 1 354 357 348 1 5 3 2 6 360 359 1 2 0 359 356 341 327 318 330 340 335 330 325 323 322 313 308 309 308 306 303 304 293 279 279 284 293 289 287 282 289 302 302 316 37 78 94 77 77 67 53 79 91 95 87 81
16 13 10 4 2 359 357 354 351 357 1 3 7 6 3 359 359 357 357 358 351 333 329 323 314 337 340 336 333 331 328 316 312 321 311 309 314 318 332 330 297 267 261 259 266 253 265 273 275 284 323 96 63 62 86 85 51 15 29 81 78 89 89
17 15 10 6 1 357 353 355 358 1 356 9 10 6 360 358 351 352 352 350 331 324 319 325 338 339 346 338 336 333 321 315 318 315 316 314 320 321 330 330 319 306 284 262 255 259 259 262 274 329 74 79 111 92 67 77 82 32 20 51 61 61 64
17 12 9 6 355 355 357 354 359 2 10 12 8 7 354 349 350 346 339 328 322 322 338 340 341 345 343 337 333 326 317 310 312 327 323 325 328 329 324 333 338 331 329 328 305 267 251 255 253 184 111 81 77 108 102 84 97 85 16 10 33 67 67
17 10 5 4 359 354 353 357 360 3 15 12 8 359 355 352 350 350 343 337 339 338 344 342 346 345 338 323 322 316 314 328 330 330 332 332 332 334 333 336 337 336 335 322 309 292 257 242 242 185 133 121 93 91 99 78 85 78 129 320 359 48 57
12 10 2 357 355 354 353 4 4 10 14 10 3 4 358 351 346 345 344 347 347 345 344 342 343 340 333 327 324 339 336 334 333 339 338 333 335 335 332 331 340 343 333 324 311 292 252 242 234 192 154 137 132 121 106 94 80 85 40 47 350 22 3
11 8 359 354 353 350 6 9 11 14 14 14 9 4 355 348 345 342 342 348 351 349 345 344 343 338 334 330 334 334 339 341 336 341 338 336 336 335 334 337 339 338 339 338 317 291 252 203 218 168 162 154 136 131 124 109 102 115 38 16 43 325 358
8 3 2 358 354 6 10 11 12 15 17 15 13 0 353 349 344 346 349 354 354 354 349 342 345 342 339 338 335 338 338 335 339 342 343 337 338 338 333 337 341 341 336 335 331 299 253 205 175 157 151 115 127 132 127 125 108 30 132 205 165 212 308
7 5 2 2 10 16 13 15 16 9 2 13 11 1 356 351 353 351 350 354 357 353 348 346 347 348 343 338 339 340 339 339 344 342 344 344 339 339 339 338 341 336 337 339 316 336 358 103 113 119 115 124 38 129 126 125 121 18 94 175 226 101 112
10 8 4 11 17 17 13 17 14 8 3 6 4 359 357 351 349 348 349 351 358 355 349 346 344 342 340 341 336 335 337 339 347 347 344 345 341 342 340 341 341 339 336 336 346 348 354 91 102 105 108 101 84 109 120 121 126 151 194 246 104 75 96
8 6 14 17 21 14 12 13 16 10 8 3 356 355 1 351 349 352 350 358 358 356 347 343 345 341 340 339 344 338 340 342 349 349 345 344 347 348 345 336 334 337 340 339 343 347 6 103 103 100 99 94 95 121 112 111 122 135 159 134 92 96 83
10 14 19 17 17 12 7 7 10 12 12 1 359 355 355 347 348 352 353 356 0 355 349 344 344 342 341 339 338 340 343 348 352 350 348 348 348 351 344 337 334 338 343 342 2 6 55 110 103 102 94 98 100 92 110 116 128 141 132 87 85 86 76
13 18 20 15 14 9 4 0 3 11 8 359 358 358 354 348 354 350 351 356 359 1 351 346 339 338 341 346 340 342 349 353 353 350 351 352 350 348 350 347 348 350 350 26 34 37 83 90 92 92 90 91 93 90 106 124 133 122 117 84 91 104 91
20 18 20 9 12 7 5 6 359 11 7 3 1 356 357 352 357 353 353 355 2 357 349 343 345 340 339 343 344 346 349 354 352 350 353 354 354 354 353 355 355 2 18 38 40 53 65 78 86 91 90 91 94 94 103 111 116 121 116 111 47 68 67
21 16 15 9 9 4 7 7 6 6 5 6 3 359 3 360 3 360 357 359 359 355 346 343 349 347 343 343 345 348 352 357 354 351 353 358 360 356 356 359 1 9 18 36 44 50 61 71 74 84 88 87 89 89 76 81 80 80 101 102 88 31 64
17 15 12 10 5 6 9 11 9 8 6 6 5 6 5 4 4 359 356 357 0 355 347 346 351 347 342 349 354 353 354 359 355 353 352 360 6 3 2 4 8 15 21 29 40 48 56 63 61 66 77 77 77 74 73 75 77 78 82 64 76 96 53
16 12 12 8 8 10 11 11 11 8 7 7 10 6 5 5 3 0 356 356 2 358 349 349 355 355 356 356 354 353 353 359 358 355 357 359 4 8 8 8 9 17 24 24 30 37 53 60 67 68 67 76 80 85 79 76 73 79 83 86 62 66 105
16 12 14 11 12 11 11 11 11 9 10 12 12 10 5 1 358 0 359 358 0 1 355 359 3 2 355 350 351 357 357 2 355 359 2 5 3 7 11 12 12 14 23 28 30 29 34 58 71 73 58 78 82 86 88 85 84 86 80 67 60 57 42
18 16 14 14 12 11 12 12 12 13 15 13 9 9 2 0 0 1 2 4 4 6 4 4 4 359 354 349 358 2 2 4 1 358 4 7 8 7 10 13 10 10 17 23 27 30 38 45 54 69 65 87 91 96 90 83 99 94 75 79 69 45 35
18 19 16 13 10 12 14 14 16 17 16 11 7 3 1 3 5 4 2 4 8 9 10 8 359 357 4 1 355 1 7 11 8 4 6 12 11 10 2 11 9 15 18 18 18 17 26 34 52 58 54 64 103 100 101 106 93 78 71 66 65 72 81
20 22 11 12 13 13 12 15 18 18 14 11 5 2 3 5 7 5 8 5 5 12 12 6 358 358 359 2 6 12 14 13 11 11 12 16 16 4 1 359 0 9 12 14 7 6 19 26 38 55 55 52 40 70 121 91 72 91 86 84 53 44 40
24 18 16 11 11 12 16 20 21 15 12 9 3 3 8 4 1 4 7 6 11 13 12 6 1 359 1 3 9 12 18 19 17 16 14 14 17 16 5 1 3 6 8 11 8 0 2 17 29 44 50 50 47 41 34 78 125 91 103 112 95 72 92
25 20 15 12 13 21 22 22 17 12 11 2 2 9 3 3 7 6 10 9 11 10 13 8 2 2 3 4 4 15 18 22 23 17 13 11 18 20 16 10 4 7 359 6 8 359 355 6 18 39 45 41 39 35 32 28 18 58 144 94 92 59 337
27 21 17 17 24 27 28 21 8 9 4 360 7 8 6 10 8 5 8 10 8 10 17 8 5 6 7 6 4 11 19 22 25 22 17 9 17 22 21 17 11 6 2 7 4 355 347 3 14 40 42 41 34 28 30 25 18 25 56 106 121 92 324
31 25 21 25 30 34 27 17 13 7 4 1 5 4 3 6 7 7 11 11 12 13 13 11 9 10 9 9 5 13 17 24 26 26 20 16 13 24 23 21 20 11 9 12 12 1 355 2 16 39 47 43 38 36 38 29 10 357 25 58 64 69 43
34 28 28 31 37 31 25 18 11 4 4 358 359 358 10 10 10 10 10 14 17 12 9 13 10 11 9 10 11 16 16 21 24 24 24 19 17 22 27 22 20 15 14 17 7 3 5 6 30 34 33 41 26 35 38 25 29 28 33 46 57 63 55
41 37 33 42 37 30 21 13 7 5 6 3 1 11 9 8 6 10 11 15 20 13 11 14 10 10 9 11 16 16 16 21 22 24 25 18 17 17 27 28 25 23 20 20 9 7 8 15 35 31 32 35 26 33 24 360 4 38 45 62 61 59 57
51 42 45 44 37 28 20 13 14 3 8 2 14 3 12 7 13 14 16 13 19 15 11 15 14 12 12 15 22 20 18 22 26 22 14 19 17 17 21 31 31 27 22 16 7 16 14 21 35 26 21 21 26 23 8 351 346 4 19 46 41 44 40
58 57 55 44 37 34 21 20 1 3 12 10 14 347 14 14 15 18 16 13 17 20 15 14 16 13 16 18 22 22 22 28 32 18 11 12 10 15 15 24 28 26 26 16 16 20 21 24 35 26 7 27 29 26 356 336 360 16 22 29 21 26 27
65 61 57 49 41 35 21 22 16 16 15 12 4 1 10 17 21 16 9 15 16 15 19 11 17 15 18 20 24 26 24 35 26 17 15 21 11 13 12 10 20 14 12 16 19 21 26 26 33 23 25 32 17 1 329 327 16 38 42 43 36 35 33
74 62 56 54 45 39 24 27 18 22 17 8 14 19 19 17 20 17 14 16 17 17 19 18 16 19 18 21 25 29 31 35 27 22 20 25 20 18 11 11 17 8 5 11 15 20 23 27 30 38 32 27 9 330 318 358 15 30 42 38 37 35 24
70 69 56 48 50 41 26 27 28 22 15 17 20 23 19 17 18 18 18 20 20 15 12 22 20 22 19 21 25 32 36 32 28 24 26 29 23 23 13 9 15 3 360 14 16 23 25 28 31 38 24 21 16 12 16 21 16 28 37 34 35 35 20
69 63 55 48 53 46 28 30 24 21 22 19 22 22 18 14 19 22 23 21 21 19 11 12 21 22 20 19 23 29 33 33 29 37 37 35 25 16 9 4 9 6 5 7 11 24 28 29 34 23 19 21 23 17 24 30 19 29 29 29 36 34 18
76 61 58 52 51 47 33 28 30 21 22 26 24 28 16 8 19 23 16 11 13 18 16 13 16 22 21 20 20 23 27 31 34 36 39 38 24 18 11 9 3 1 12 10 14 26 31 32 29 22 21 21 25 27 28 27 27 21 26 33 33 22 11